Time,TemperatureF,DewpointF,PressureIn,WindDirection,WindDirectionDegrees,WindSpeedMPH,WindSpeedGustMPH,Humidity,HourlyPrecipIn,Conditions,Clouds,dailyrainin,SoftwareType,DateUTC
2013-08-17 00:01:00,64.8,62.1,30.19,SE,128,0.0,0.0,91,0.00,,---,0.00,VWS V14.00,2013-08-17 04:01:00,
2013-08-17 00:06:00,64.7,61.7,30.18,NE,52,0.0,0.0,90,0.00,,---,0.00,VWS V14.00,2013-08-17 04:06:00,
2013-08-17 00:11:00,64.7,61.4,30.19,SE,135,0.0,0.0,89,0.00,,---,0.00,VWS V14.00,2013-08-17 04:11:00,
2013-08-17 00:16:00,64.6,61.3,30.19,ENE,61,0.0,0.0,89,0.00,,---,0.00,VWS V14.00,2013-08-17 04:16:00,
2013-08-17 00:21:00,64.7,61.4,30.19,ENE,71,0.0,0.0,89,0.00,,---,0.00,VWS V14.00,2013-08-17 04:21:00,
2013-08-17 00:26:00,64.7,61.4,30.18,ENE,71,0.0,0.0,89,0.00,,---,0.00,VWS V14.00,2013-08-17 04:26:00,
2013-08-17 00:31:00,64.6,61.3,30.18,ENE,71,0.0,0.0,89,0.00,,---,0.00,VWS V14.00,2013-08-17 04:31:00,
2013-08-17 00:36:00,64.6,61.3,30.18,SE,130,0.0,0.0,89,0.00,,---,0.00,VWS V14.00,2013-08-17 04:36:00,
2013-08-17 00:41:00,64.6,61.3,30.18,SE,130,0.0,0.0,89,0.00,,---,0.00,VWS V14.00,2013-08-17 04:41:00,
2013-08-17 00:46:00,64.5,61.2,30.18,SE,130,0.0,0.0,89,0.00,,---,0.00,VWS V14.00,2013-08-17 04:46:00,
2013-08-17 00:51:00,64.5,61.2,30.18,SE,130,0.0,0.0,89,0.00,,---,0.00,VWS V14.00,2013-08-17 04:51:00,
2013-08-17 00:56:00,64.5,61.2,30.18,SE,130,0.0,0.0,89,0.00,,---,0.00,VWS V14.00,2013-08-17 04:56:00,
2013-08-17 01:01:00,64.4,61.1,30.18,SE,130,0.0,0.0,89,0.00,,---,0.00,VWS V14.00,2013-08-17 05:01:00,
2013-08-17 01:06:00,64.4,61.1,30.18,SE,130,0.0,0.0,89,0.00,,---,0.00,VWS V14.00,2013-08-17 05:06:00,
2013-08-17 01:11:00,64.4,61.4,30.18,SE,130,0.0,0.0,90,0.00,,---,0.00,VWS V14.00,2013-08-17 05:11:00,
2013-08-17 01:16:00,64.3,61.3,30.18,SE,130,0.0,0.0,90,0.00,,---,0.00,VWS V14.00,2013-08-17 05:16:00,
2013-08-17 01:21:00,64.3,61.3,30.18,SE,130,0.0,0.0,90,0.00,,---,0.00,VWS V14.00,2013-08-17 05:21:00,
2013-08-17 01:26:00,64.3,61.3,30.18,SE,130,0.0,0.0,90,0.00,,---,0.00,VWS V14.00,2013-08-17 05:26:00,
2013-08-17 01:31:00,64.3,61.3,30.18,SE,130,0.0,0.0,90,0.00,,---,0.00,VWS V14.00,2013-08-17 05:31:00,
2013-08-17 01:36:00,64.3,61.6,30.18,SE,130,0.0,0.0,91,0.00,,---,0.00,VWS V14.00,2013-08-17 05:36:00,
2013-08-17 01:41:00,64.2,61.5,30.18,SE,130,0.0,0.0,91,0.00,,---,0.00,VWS V14.00,2013-08-17 05:41:00,
2013-08-17 01:46:00,64.2,61.5,30.17,SE,130,0.0,0.0,91,0.00,,---,0.00,VWS V14.00,2013-08-17 05:46:00,
2013-08-17 01:51:00,64.2,61.5,30.18,SE,125,0.0,1.0,91,0.00,,---,0.00,VWS V14.00,2013-08-17 05:51:00,
2013-08-17 01:56:00,64.2,61.8,30.17,ESE,107,0.0,1.0,92,0.00,,---,0.00,VWS V14.00,2013-08-17 05:56:00,
2013-08-17 02:01:00,64.2,61.8,30.17,ESE,107,0.0,0.0,92,0.00,,---,0.00,VWS V14.00,2013-08-17 06:01:00,
2013-08-17 02:06:00,64.2,61.5,30.17,ESE,107,0.0,0.0,91,0.00,,---,0.00,VWS V14.00,2013-08-17 06:06:00,
2013-08-17 02:11:00,64.2,61.8,30.17,ESE,107,0.0,0.0,92,0.00,,---,0.00,VWS V14.00,2013-08-17 06:11:00,
2013-08-17 02:16:00,64.1,61.4,30.18,NE,51,0.0,0.0,91,0.00,,---,0.00,VWS V14.00,2013-08-17 06:16:00,
2013-08-17 02:21:00,64.1,61.4,30.18,NE,51,0.0,0.0,91,0.00,,---,0.00,VWS V14.00,2013-08-17 06:21:00,
2013-08-17 02:26:00,64.1,61.4,30.18,NE,51,0.0,0.0,91,0.00,,---,0.00,VWS V14.00,2013-08-17 06:26:00,
2013-08-17 02:31:00,64.1,61.4,30.18,NE,51,0.0,0.0,91,0.00,,---,0.00,VWS V14.00,2013-08-17 06:31:00,
2013-08-17 02:36:00,64.1,61.4,30.18,NE,51,0.0,0.0,91,0.00,,---,0.00,VWS V14.00,2013-08-17 06:36:00,
2013-08-17 02:41:00,64.0,61.3,30.17,NE,52,0.0,0.0,91,0.00,,---,0.00,VWS V14.00,2013-08-17 06:41:00,
2013-08-17 02:46:00,64.0,61.3,30.18,NE,54,0.0,0.0,91,0.00,,---,0.00,VWS V14.00,2013-08-17 06:46:00,
2013-08-17 02:51:00,63.9,61.5,30.17,NE,54,0.0,0.0,92,0.01,,---,0.01,VWS V14.00,2013-08-17 06:51:00,
2013-08-17 02:56:00,63.8,61.4,30.18,NE,54,0.0,0.0,92,0.01,,---,0.01,VWS V14.00,2013-08-17 06:56:00,
2013-08-17 03:01:00,63.7,61.6,30.18,NE,54,0.0,0.0,93,0.01,,---,0.01,VWS V14.00,2013-08-17 07:01:00,
2013-08-17 03:06:00,63.6,61.5,30.17,NE,54,0.0,0.0,93,0.01,,---,0.01,VWS V14.00,2013-08-17 07:06:00,
2013-08-17 03:11:00,63.4,61.3,30.17,NE,54,0.0,0.0,93,0.01,,---,0.01,VWS V14.00,2013-08-17 07:11:00,
2013-08-17 03:16:00,63.3,61.5,30.17,NE,54,0.0,0.0,94,0.01,,---,0.01,VWS V14.00,2013-08-17 07:16:00,
2013-08-17 03:21:00,63.2,61.5,30.17,NE,53,0.0,0.0,94,0.01,,---,0.01,VWS V14.00,2013-08-17 07:21:00,
2013-08-17 03:26:00,63.2,61.5,30.17,NE,54,0.0,0.0,94,0.01,,---,0.01,VWS V14.00,2013-08-17 07:26:00,
2013-08-17 03:31:00,63.1,61.3,30.17,NE,54,0.0,0.0,94,0.01,,---,0.01,VWS V14.00,2013-08-17 07:31:00,
2013-08-17 03:36:00,63.1,61.7,30.17,ENE,60,0.0,0.0,95,0.01,,---,0.01,VWS V14.00,2013-08-17 07:36:00,
2013-08-17 03:41:00,63.1,61.7,30.17,ENE,61,0.0,0.0,95,0.01,,---,0.01,VWS V14.00,2013-08-17 07:41:00,
2013-08-17 03:46:00,63.0,61.5,30.17,ENE,60,0.0,0.0,95,0.01,,---,0.01,VWS V14.00,2013-08-17 07:46:00,
2013-08-17 03:51:00,62.9,61.5,30.17,ENE,61,0.0,0.0,95,0.00,,---,0.01,VWS V14.00,2013-08-17 07:51:00,
2013-08-17 03:56:00,62.9,61.5,30.16,ENE,61,0.0,0.0,95,0.00,,---,0.01,VWS V14.00,2013-08-17 07:56:00,
2013-08-17 04:01:00,62.9,61.5,30.16,ENE,61,0.0,0.0,95,0.00,,---,0.01,VWS V14.00,2013-08-17 08:01:00,
2013-08-17 04:06:00,62.9,61.5,30.16,ENE,67,0.0,0.0,95,0.00,,---,0.01,VWS V14.00,2013-08-17 08:06:00,
2013-08-17 04:11:00,62.9,61.5,30.16,NE,47,0.0,0.0,95,0.00,,---,0.01,VWS V14.00,2013-08-17 08:11:00,
2013-08-17 04:16:00,62.8,61.3,30.16,NNE,22,0.0,3.0,95,0.00,,---,0.01,VWS V14.00,2013-08-17 08:16:00,
2013-08-17 04:21:00,62.9,61.8,30.16,NNE,22,0.0,0.0,96,0.00,,---,0.01,VWS V14.00,2013-08-17 08:21:00,
2013-08-17 04:26:00,62.9,61.8,30.16,North,5,0.0,1.0,96,0.00,,---,0.01,VWS V14.00,2013-08-17 08:26:00,
2013-08-17 04:31:00,62.9,61.8,30.16,North,5,0.0,0.0,96,0.00,,---,0.01,VWS V14.00,2013-08-17 08:31:00,
2013-08-17 04:36:00,62.9,61.8,30.16,North,5,0.0,2.0,96,0.00,,---,0.01,VWS V14.00,2013-08-17 08:36:00,
2013-08-17 04:41:00,62.9,61.8,30.16,NE,55,0.0,0.0,96,0.00,,---,0.01,VWS V14.00,2013-08-17 08:41:00,
2013-08-17 04:46:00,62.9,61.8,30.16,NE,49,0.0,0.0,96,0.00,,---,0.01,VWS V14.00,2013-08-17 08:46:00,
2013-08-17 04:51:00,62.9,61.8,30.16,ENE,67,0.0,1.0,96,0.00,,---,0.01,VWS V14.00,2013-08-17 08:51:00,
2013-08-17 04:56:00,62.9,61.8,30.16,East,92,0.0,7.0,96,0.00,,---,0.01,VWS V14.00,2013-08-17 08:56:00,
2013-08-17 05:01:00,62.8,61.3,30.15,SE,126,1.0,1.0,95,0.00,,---,0.01,VWS V14.00,2013-08-17 09:01:00,
2013-08-17 05:06:00,62.8,61.3,30.16,ENE,71,0.0,1.0,95,0.00,,---,0.01,VWS V14.00,2013-08-17 09:06:00,
2013-08-17 05:11:00,62.8,61.3,30.16,ENE,58,0.0,0.0,95,0.00,,---,0.01,VWS V14.00,2013-08-17 09:11:00,
2013-08-17 05:16:00,62.8,61.3,30.16,NNE,30,7.0,7.0,95,0.00,,---,0.01,VWS V14.00,2013-08-17 09:16:00,
2013-08-17 05:21:00,62.7,61.2,30.16,NE,44,0.0,4.0,95,0.00,,---,0.01,VWS V14.00,2013-08-17 09:21:00,
2013-08-17 05:26:00,62.7,61.2,30.16,NE,44,0.0,0.0,95,0.00,,---,0.01,VWS V14.00,2013-08-17 09:26:00,
2013-08-17 05:31:00,62.7,61.2,30.16,ENE,68,0.0,0.0,95,0.00,,---,0.01,VWS V14.00,2013-08-17 09:31:00,
2013-08-17 05:36:00,62.7,61.2,30.16,NE,42,0.0,2.0,95,0.00,,---,0.01,VWS V14.00,2013-08-17 09:36:00,
2013-08-17 05:41:00,62.8,61.3,30.16,NE,42,0.0,2.0,95,0.00,,---,0.01,VWS V14.00,2013-08-17 09:41:00,
2013-08-17 05:46:00,62.7,61.2,30.16,East,86,3.0,5.0,95,0.00,,---,0.01,VWS V14.00,2013-08-17 09:46:00,
2013-08-17 05:51:00,62.7,61.2,30.16,ENE,74,0.0,0.0,95,0.00,,---,0.01,VWS V14.00,2013-08-17 09:51:00,
2013-08-17 05:56:00,62.7,61.2,30.16,NE,36,0.0,6.0,95,0.00,,---,0.01,VWS V14.00,2013-08-17 09:56:00,
2013-08-17 06:01:00,62.7,61.2,30.16,NNE,27,0.0,1.0,95,0.00,,---,0.01,VWS V14.00,2013-08-17 10:01:00,
2013-08-17 06:05:00,62.7,61.0,30.16,NNE,28,0.0,0.0,94,0.00,,---,0.01,VWS V14.00,2013-08-17 10:05:00,
2013-08-17 06:10:00,62.7,61.0,30.16,ESE,116,1.0,2.0,94,0.00,,---,0.01,VWS V14.00,2013-08-17 10:10:00,
2013-08-17 06:15:00,62.7,61.0,30.17,NE,51,0.0,3.0,94,0.00,,---,0.01,VWS V14.00,2013-08-17 10:15:00,
2013-08-17 06:20:00,62.7,61.0,30.16,NE,40,3.0,4.0,94,0.00,,---,0.01,VWS V14.00,2013-08-17 10:20:00,
2013-08-17 06:25:00,62.7,61.0,30.16,NE,42,0.0,0.0,94,0.00,,---,0.01,VWS V14.00,2013-08-17 10:25:00,
2013-08-17 06:30:00,62.7,61.0,30.17,ENE,63,0.0,1.0,94,0.00,,---,0.01,VWS V14.00,2013-08-17 10:30:00,
2013-08-17 06:35:00,62.7,60.7,30.17,ENE,63,0.0,0.0,93,0.00,,---,0.01,VWS V14.00,2013-08-17 10:35:00,
2013-08-17 06:40:00,62.7,61.0,30.17,ENE,66,0.0,5.0,94,0.00,,---,0.01,VWS V14.00,2013-08-17 10:40:00,
2013-08-17 06:45:00,62.7,60.7,30.17,ESE,106,0.0,0.0,93,0.00,,---,0.01,VWS V14.00,2013-08-17 10:45:00,
2013-08-17 06:50:00,62.7,60.7,30.17,ENE,65,0.0,3.0,93,0.00,,---,0.01,VWS V14.00,2013-08-17 10:50:00,
2013-08-17 06:55:00,62.7,60.7,30.17,East,85,1.0,6.0,93,0.00,,---,0.01,VWS V14.00,2013-08-17 10:55:00,
2013-08-17 07:00:00,62.7,60.3,30.17,ENE,78,0.0,5.0,92,0.00,,---,0.01,VWS V14.00,2013-08-17 11:00:00,
2013-08-17 07:05:00,62.7,60.3,30.18,East,81,0.0,3.0,92,0.00,,---,0.01,VWS V14.00,2013-08-17 11:05:00,
2013-08-17 07:10:00,62.8,60.5,30.17,ENE,62,0.0,2.0,92,0.00,,---,0.01,VWS V14.00,2013-08-17 11:10:00,
2013-08-17 07:15:00,62.8,60.5,30.18,NE,43,0.0,0.0,92,0.00,,---,0.01,VWS V14.00,2013-08-17 11:15:00,
2013-08-17 07:20:00,62.8,60.5,30.18,ENE,59,0.0,2.0,92,0.00,,---,0.01,VWS V14.00,2013-08-17 11:20:00,
2013-08-17 07:25:00,62.8,60.5,30.18,NE,36,0.0,2.0,92,0.00,,---,0.01,VWS V14.00,2013-08-17 11:25:00,
2013-08-17 07:30:00,62.8,60.5,30.17,ENE,69,2.0,2.0,92,0.00,,---,0.01,VWS V14.00,2013-08-17 11:30:00,
2013-08-17 07:35:00,62.9,60.5,30.18,SSW,199,2.0,2.0,92,0.00,,---,0.01,VWS V14.00,2013-08-17 11:35:00,
2013-08-17 07:40:00,62.9,60.5,30.18,NE,47,0.0,1.0,92,0.00,,---,0.01,VWS V14.00,2013-08-17 11:40:00,
2013-08-17 07:45:00,62.9,60.5,30.18,NE,44,2.0,5.0,92,0.00,,---,0.01,VWS V14.00,2013-08-17 11:45:00,
2013-08-17 07:50:00,62.9,60.5,30.18,ENE,69,1.0,1.0,92,0.00,,---,0.01,VWS V14.00,2013-08-17 11:50:00,
2013-08-17 07:55:00,62.9,60.5,30.18,ENE,71,0.0,0.0,92,0.00,,---,0.01,VWS V14.00,2013-08-17 11:55:00,
2013-08-17 08:00:00,63.0,60.3,30.18,NE,53,0.0,3.0,91,0.00,,---,0.01,VWS V14.00,2013-08-17 12:00:00,
2013-08-17 08:05:00,63.1,60.4,30.18,East,91,0.0,1.0,91,0.00,,---,0.01,VWS V14.00,2013-08-17 12:05:00,
2013-08-17 08:06:00,63.1,60.4,30.18,East,92,0.0,0.0,91,0.00,,---,0.01,VWS V14.00,2013-08-17 12:06:00,
2013-08-17 08:11:00,63.2,60.5,30.18,East,92,0.0,1.0,91,0.00,,---,0.01,VWS V14.00,2013-08-17 12:11:00,
2013-08-17 08:16:00,63.4,60.7,30.18,NE,51,0.0,0.0,91,0.00,,---,0.01,VWS V14.00,2013-08-17 12:16:00,
2013-08-17 08:21:00,63.4,60.4,30.18,ENE,60,0.0,1.0,90,0.00,,---,0.01,VWS V14.00,2013-08-17 12:21:00,
2013-08-17 08:26:00,63.5,60.5,30.18,ENE,64,6.0,6.0,90,0.00,,---,0.01,VWS V14.00,2013-08-17 12:26:00,
2013-08-17 08:31:00,63.5,60.5,30.18,East,84,2.0,2.0,90,0.00,,---,0.01,VWS V14.00,2013-08-17 12:31:00,
2013-08-17 08:36:00,63.6,60.3,30.18,NE,40,7.0,7.0,89,0.00,,---,0.01,VWS V14.00,2013-08-17 12:36:00,
2013-08-17 08:41:00,63.6,60.0,30.19,ENE,61,3.0,3.0,88,0.00,,---,0.01,VWS V14.00,2013-08-17 12:41:00,
2013-08-17 08:46:00,63.8,60.5,30.19,NE,37,2.0,8.0,89,0.00,,---,0.01,VWS V14.00,2013-08-17 12:46:00,
2013-08-17 08:51:00,63.9,60.6,30.19,NE,49,0.0,9.0,89,0.00,,---,0.01,VWS V14.00,2013-08-17 12:51:00,
2013-08-17 08:56:00,64.0,60.7,30.19,ENE,60,0.0,6.0,89,0.00,,---,0.01,VWS V14.00,2013-08-17 12:56:00,
2013-08-17 09:01:00,64.1,60.8,30.19,NE,51,4.0,4.0,89,0.00,,---,0.01,VWS V14.00,2013-08-17 13:01:00,
2013-08-17 09:06:00,64.2,60.6,30.20,ENE,69,0.0,5.0,88,0.00,,---,0.01,VWS V14.00,2013-08-17 13:06:00,
2013-08-17 09:11:00,64.2,60.6,30.20,ENE,71,1.0,5.0,88,0.00,,---,0.01,VWS V14.00,2013-08-17 13:11:00,
2013-08-17 09:16:00,64.2,60.6,30.20,ESE,120,4.0,5.0,88,0.00,,---,0.01,VWS V14.00,2013-08-17 13:16:00,
2013-08-17 09:21:00,64.2,60.6,30.19,NE,36,1.0,1.0,88,0.00,,---,0.01,VWS V14.00,2013-08-17 13:21:00,
2013-08-17 09:26:00,64.2,60.6,30.19,ENE,59,0.0,4.0,88,0.00,,---,0.01,VWS V14.00,2013-08-17 13:26:00,
2013-08-17 09:31:00,64.3,60.7,30.20,ENE,72,0.0,1.0,88,0.00,,---,0.01,VWS V14.00,2013-08-17 13:31:00,
2013-08-17 09:36:00,64.3,60.7,30.20,ENE,64,0.0,5.0,88,0.00,,---,0.01,VWS V14.00,2013-08-17 13:36:00,
2013-08-17 09:41:00,64.4,60.8,30.20,ENE,63,4.0,5.0,88,0.00,,---,0.01,VWS V14.00,2013-08-17 13:41:00,
2013-08-17 09:46:00,64.5,60.9,30.20,East,87,0.0,3.0,88,0.00,,---,0.01,VWS V14.00,2013-08-17 13:46:00,
2013-08-17 09:51:00,64.5,60.9,30.20,NNE,19,8.0,8.0,88,0.00,,---,0.01,VWS V14.00,2013-08-17 13:51:00,
2013-08-17 09:56:00,64.6,60.7,30.20,East,84,2.0,5.0,87,0.00,,---,0.01,VWS V14.00,2013-08-17 13:56:00,
2013-08-17 10:01:00,64.7,61.1,30.20,ENE,72,2.0,4.0,88,0.00,,---,0.01,VWS V14.00,2013-08-17 14:01:00,
2013-08-17 10:06:00,64.8,60.8,30.20,NE,45,3.0,8.0,87,0.00,,---,0.01,VWS V14.00,2013-08-17 14:06:00,
2013-08-17 10:11:00,64.9,60.9,30.20,ENE,70,3.0,7.0,87,0.00,,---,0.01,VWS V14.00,2013-08-17 14:11:00,
2013-08-17 10:16:00,65.1,61.1,30.20,ENE,76,3.0,5.0,87,0.00,,---,0.01,VWS V14.00,2013-08-17 14:16:00,
2013-08-17 10:21:00,65.3,61.3,30.21,SSE,148,0.0,1.0,87,0.00,,---,0.01,VWS V14.00,2013-08-17 14:21:00,
2013-08-17 10:26:00,65.4,61.1,30.21,NNE,17,9.0,9.0,86,0.00,,---,0.01,VWS V14.00,2013-08-17 14:26:00,
2013-08-17 10:31:00,65.4,61.1,30.21,NE,51,7.0,10.0,86,0.00,,---,0.01,VWS V14.00,2013-08-17 14:31:00,
2013-08-17 10:36:00,65.5,61.2,30.21,East,84,2.0,3.0,86,0.00,,---,0.01,VWS V14.00,2013-08-17 14:36:00,
2013-08-17 10:41:00,65.5,61.2,30.21,NE,50,1.0,4.0,86,0.00,,---,0.01,VWS V14.00,2013-08-17 14:41:00,
2013-08-17 10:46:00,65.5,61.2,30.21,North,360,6.0,9.0,86,0.00,,---,0.01,VWS V14.00,2013-08-17 14:46:00,
2013-08-17 10:51:00,65.5,61.2,30.21,NW,323,4.0,7.0,86,0.00,,---,0.01,VWS V14.00,2013-08-17 14:51:00,
2013-08-17 10:56:00,65.5,61.2,30.21,ESE,109,6.0,9.0,86,0.00,,---,0.01,VWS V14.00,2013-08-17 14:56:00,
2013-08-17 11:01:00,65.5,61.2,30.21,ENE,71,4.0,10.0,86,0.00,,---,0.01,VWS V14.00,2013-08-17 15:01:00,
2013-08-17 11:06:00,65.6,61.0,30.21,ENE,69,6.0,7.0,85,0.00,,---,0.01,VWS V14.00,2013-08-17 15:06:00,
2013-08-17 11:11:00,65.7,61.4,30.21,NE,44,0.0,3.0,86,0.00,,---,0.01,VWS V14.00,2013-08-17 15:11:00,
2013-08-17 11:16:00,65.8,61.8,30.21,ENE,65,1.0,3.0,87,0.00,,---,0.01,VWS V14.00,2013-08-17 15:16:00,
2013-08-17 11:21:00,66.0,62.0,30.21,NE,56,0.0,0.0,87,0.00,,---,0.01,VWS V14.00,2013-08-17 15:21:00,
2013-08-17 11:26:00,66.3,62.3,30.21,East,92,0.0,0.0,87,0.00,,---,0.01,VWS V14.00,2013-08-17 15:26:00,
2013-08-17 11:31:00,66.5,61.9,30.20,NE,37,3.0,6.0,85,0.00,,---,0.01,VWS V14.00,2013-08-17 15:31:00,
2013-08-17 11:36:00,66.7,62.0,30.21,NE,51,0.0,4.0,85,0.00,,---,0.01,VWS V14.00,2013-08-17 15:36:00,
2013-08-17 11:41:00,66.9,61.9,30.20,ENE,57,0.0,6.0,84,0.00,,---,0.01,VWS V14.00,2013-08-17 15:41:00,
2013-08-17 11:46:00,67.1,62.1,30.21,ENE,60,3.0,7.0,84,0.00,,---,0.01,VWS V14.00,2013-08-17 15:46:00,
2013-08-17 11:51:00,67.2,62.2,30.21,NNE,30,0.0,6.0,84,0.00,,---,0.01,VWS V14.00,2013-08-17 15:51:00,
2013-08-17 11:56:00,67.3,62.3,30.21,NE,47,5.0,5.0,84,0.00,,---,0.01,VWS V14.00,2013-08-17 15:56:00,
2013-08-17 12:01:00,67.4,62.4,30.21,ENE,64,0.0,2.0,84,0.00,,---,0.01,VWS V14.00,2013-08-17 16:01:00,
2013-08-17 12:06:00,67.6,62.6,30.21,ENE,66,2.0,5.0,84,0.00,,---,0.01,VWS V14.00,2013-08-17 16:06:00,
2013-08-17 12:11:00,67.7,62.4,30.21,NE,49,0.0,2.0,83,0.00,,---,0.01,VWS V14.00,2013-08-17 16:11:00,
2013-08-17 12:16:00,67.8,62.5,30.20,SE,139,0.0,0.0,83,0.00,,---,0.01,VWS V14.00,2013-08-17 16:16:00,
2013-08-17 12:21:00,67.9,62.5,30.20,SSE,165,0.0,2.0,83,0.00,,---,0.01,VWS V14.00,2013-08-17 16:21:00,
2013-08-17 12:26:00,67.9,62.9,30.20,NE,36,4.0,5.0,84,0.00,,---,0.01,VWS V14.00,2013-08-17 16:26:00,
2013-08-17 12:31:00,67.9,62.5,30.20,ENE,75,1.0,5.0,83,0.00,,---,0.01,VWS V14.00,2013-08-17 16:31:00,
2013-08-17 12:36:00,67.9,62.5,30.20,ENE,58,0.0,5.0,83,0.00,,---,0.01,VWS V14.00,2013-08-17 16:36:00,
2013-08-17 12:41:00,67.8,62.5,30.19,ENE,76,0.0,0.0,83,0.00,,---,0.01,VWS V14.00,2013-08-17 16:41:00,
2013-08-17 12:46:00,67.9,62.9,30.20,ESE,111,0.0,4.0,84,0.00,,---,0.01,VWS V14.00,2013-08-17 16:46:00,
2013-08-17 12:51:00,67.9,62.9,30.19,ESE,108,0.0,0.0,84,0.00,,---,0.01,VWS V14.00,2013-08-17 16:51:00,
2013-08-17 12:56:00,67.9,62.9,30.19,NE,45,0.0,1.0,84,0.00,,---,0.01,VWS V14.00,2013-08-17 16:56:00,
2013-08-17 13:01:00,67.9,62.9,30.19,NNE,31,4.0,4.0,84,0.00,,---,0.01,VWS V14.00,2013-08-17 17:01:00,
2013-08-17 13:06:00,67.9,62.9,30.19,ENE,61,2.0,7.0,84,0.00,,---,0.01,VWS V14.00,2013-08-17 17:06:00,
2013-08-17 13:11:00,67.9,62.9,30.19,ENE,61,3.0,4.0,84,0.00,,---,0.01,VWS V14.00,2013-08-17 17:11:00,
2013-08-17 13:16:00,67.9,62.9,30.19,NE,53,4.0,7.0,84,0.00,,---,0.01,VWS V14.00,2013-08-17 17:16:00,
2013-08-17 13:21:00,67.9,62.9,30.19,SE,142,0.0,0.0,84,0.00,,---,0.01,VWS V14.00,2013-08-17 17:21:00,
2013-08-17 13:26:00,67.9,62.5,30.19,East,89,4.0,5.0,83,0.00,,---,0.01,VWS V14.00,2013-08-17 17:26:00,
2013-08-17 13:31:00,67.7,62.7,30.19,NE,48,0.0,6.0,84,0.00,,---,0.01,VWS V14.00,2013-08-17 17:31:00,
2013-08-17 13:36:00,67.6,62.9,30.19,NE,55,0.0,2.0,85,0.00,,---,0.01,VWS V14.00,2013-08-17 17:36:00,
2013-08-17 13:41:00,67.5,62.5,30.19,SE,130,0.0,1.0,84,0.00,,---,0.01,VWS V14.00,2013-08-17 17:41:00,
2013-08-17 13:46:00,67.5,62.8,30.19,ENE,61,0.0,5.0,85,0.00,,---,0.01,VWS V14.00,2013-08-17 17:46:00,
2013-08-17 13:51:00,67.4,62.7,30.19,ESE,103,0.0,2.0,85,0.00,,---,0.01,VWS V14.00,2013-08-17 17:51:00,
2013-08-17 13:56:00,67.5,62.8,30.19,ESE,113,0.0,0.0,85,0.00,,---,0.01,VWS V14.00,2013-08-17 17:56:00,
2013-08-17 14:01:00,67.6,62.9,30.18,ESE,105,0.0,0.0,85,0.00,,---,0.01,VWS V14.00,2013-08-17 18:01:00,
2013-08-17 14:06:00,67.6,62.9,30.18,ENE,67,0.0,2.0,85,0.00,,---,0.01,VWS V14.00,2013-08-17 18:06:00,
2013-08-17 14:11:00,67.7,63.4,30.18,ENE,66,0.0,0.0,86,0.00,,---,0.01,VWS V14.00,2013-08-17 18:11:00,
2013-08-17 14:16:00,67.8,63.5,30.18,NE,37,0.0,0.0,86,0.00,,---,0.01,VWS V14.00,2013-08-17 18:16:00,
2013-08-17 14:21:00,67.8,63.1,30.18,NE,48,2.0,4.0,85,0.00,,---,0.01,VWS V14.00,2013-08-17 18:21:00,
2013-08-17 14:26:00,67.9,63.6,30.18,ESE,107,0.0,4.0,86,0.00,,---,0.01,VWS V14.00,2013-08-17 18:26:00,
2013-08-17 14:31:00,68.0,63.3,30.18,NE,48,2.0,2.0,85,0.00,,---,0.01,VWS V14.00,2013-08-17 18:31:00,
2013-08-17 14:36:00,68.1,63.4,30.18,ENE,59,0.0,1.0,85,0.00,,---,0.01,VWS V14.00,2013-08-17 18:36:00,
2013-08-17 14:41:00,68.1,63.1,30.18,ENE,71,0.0,3.0,84,0.00,,---,0.01,VWS V14.00,2013-08-17 18:41:00,
2013-08-17 14:46:00,68.2,63.5,30.17,ENE,74,5.0,5.0,85,0.00,,---,0.01,VWS V14.00,2013-08-17 18:46:00,
2013-08-17 14:51:00,68.1,63.1,30.17,SE,125,0.0,6.0,84,0.00,,---,0.01,VWS V14.00,2013-08-17 18:51:00,
2013-08-17 14:56:00,68.1,63.1,30.17,East,90,4.0,6.0,84,0.00,,---,0.01,VWS V14.00,2013-08-17 18:56:00,
2013-08-17 15:01:00,68.1,63.4,30.17,ENE,57,1.0,1.0,85,0.00,,---,0.01,VWS V14.00,2013-08-17 19:01:00,
2013-08-17 15:06:00,68.1,63.8,30.17,NE,51,5.0,5.0,86,0.00,,---,0.01,VWS V14.00,2013-08-17 19:06:00,
2013-08-17 15:11:00,68.2,63.5,30.17,ENE,74,0.0,10.0,85,0.00,,---,0.01,VWS V14.00,2013-08-17 19:11:00,
2013-08-17 15:16:00,68.2,63.5,30.16,NE,42,2.0,4.0,85,0.00,,---,0.01,VWS V14.00,2013-08-17 19:16:00,
2013-08-17 15:21:00,68.3,63.6,30.16,East,88,0.0,0.0,85,0.00,,---,0.01,VWS V14.00,2013-08-17 19:21:00,
2013-08-17 15:26:00,68.4,64.1,30.16,SW,229,0.0,0.0,86,0.00,,---,0.01,VWS V14.00,2013-08-17 19:26:00,
2013-08-17 15:31:00,68.5,64.2,30.16,SE,128,4.0,4.0,86,0.00,,---,0.01,VWS V14.00,2013-08-17 19:31:00,
2013-08-17 15:36:00,68.5,64.2,30.16,ESE,115,0.0,1.0,86,0.00,,---,0.01,VWS V14.00,2013-08-17 19:36:00,
2013-08-17 15:41:00,68.5,64.2,30.16,ENE,69,0.0,11.0,86,0.00,,---,0.01,VWS V14.00,2013-08-17 19:41:00,
2013-08-17 15:46:00,68.5,63.8,30.16,ENE,57,0.0,1.0,85,0.00,,---,0.01,VWS V14.00,2013-08-17 19:46:00,
2013-08-17 15:51:00,68.5,64.2,30.16,NE,55,2.0,6.0,86,0.00,,---,0.01,VWS V14.00,2013-08-17 19:51:00,
2013-08-17 15:56:00,68.4,64.1,30.16,ENE,76,0.0,0.0,86,0.00,,---,0.01,VWS V14.00,2013-08-17 19:56:00,
2013-08-17 16:01:00,68.4,64.1,30.16,NNE,22,0.0,1.0,86,0.00,,---,0.01,VWS V14.00,2013-08-17 20:01:00,
2013-08-17 16:06:00,68.4,64.1,30.16,NE,49,3.0,5.0,86,0.00,,---,0.01,VWS V14.00,2013-08-17 20:06:00,
2013-08-17 16:11:00,68.3,64.3,30.16,East,98,1.0,4.0,87,0.00,,---,0.01,VWS V14.00,2013-08-17 20:11:00,
2013-08-17 16:16:00,68.1,64.1,30.16,East,101,0.0,1.0,87,0.00,,---,0.01,VWS V14.00,2013-08-17 20:16:00,
2013-08-17 16:21:00,68.0,64.0,30.16,NE,37,0.0,3.0,87,0.00,,---,0.01,VWS V14.00,2013-08-17 20:21:00,
2013-08-17 16:26:00,67.9,64.5,30.16,ENE,58,0.0,0.0,89,0.00,,---,0.01,VWS V14.00,2013-08-17 20:26:00,
2013-08-17 16:31:00,67.7,64.3,30.15,ENE,60,3.0,3.0,89,0.01,,---,0.02,VWS V14.00,2013-08-17 20:31:00,
2013-08-17 16:36:00,67.5,64.5,30.15,ENE,62,1.0,1.0,90,0.01,,---,0.02,VWS V14.00,2013-08-17 20:36:00,
2013-08-17 16:41:00,67.4,64.4,30.16,East,82,0.0,0.0,90,0.01,,---,0.02,VWS V14.00,2013-08-17 20:41:00,
2013-08-17 16:46:00,67.1,64.1,30.16,ENE,76,0.0,2.0,90,0.01,,---,0.02,VWS V14.00,2013-08-17 20:46:00,
2013-08-17 16:51:00,66.9,64.2,30.16,ENE,64,0.0,4.0,91,0.01,,---,0.02,VWS V14.00,2013-08-17 20:51:00,
2013-08-17 16:56:00,66.8,64.4,30.16,ENE,64,0.0,1.0,92,0.02,,---,0.03,VWS V14.00,2013-08-17 20:56:00,
2013-08-17 17:01:00,66.7,64.6,30.16,ENE,64,0.0,2.0,93,0.02,,---,0.03,VWS V14.00,2013-08-17 21:01:00,
2013-08-17 17:06:00,66.6,64.5,30.16,East,101,1.0,1.0,93,0.02,,---,0.03,VWS V14.00,2013-08-17 21:06:00,
2013-08-17 17:11:00,66.5,64.4,30.16,North,9,0.0,0.0,93,0.02,,---,0.03,VWS V14.00,2013-08-17 21:11:00,
2013-08-17 17:16:00,66.4,64.3,30.16,ENE,60,0.0,0.0,93,0.02,,---,0.03,VWS V14.00,2013-08-17 21:16:00,
2013-08-17 17:21:00,66.3,64.2,30.16,NNE,24,0.0,0.0,93,0.02,,---,0.03,VWS V14.00,2013-08-17 21:21:00,
2013-08-17 17:26:00,66.2,64.4,30.16,NNE,32,0.0,2.0,94,0.02,,---,0.03,VWS V14.00,2013-08-17 21:26:00,
2013-08-17 17:31:00,66.2,64.4,30.17,NNE,32,0.0,1.0,94,0.01,,---,0.03,VWS V14.00,2013-08-17 21:31:00,
2013-08-17 17:36:00,66.1,64.3,30.17,NE,41,0.0,0.0,94,0.01,,---,0.03,VWS V14.00,2013-08-17 21:36:00,
2013-08-17 17:41:00,66.0,64.2,30.17,East,89,0.0,0.0,94,0.02,,---,0.04,VWS V14.00,2013-08-17 21:41:00,
2013-08-17 17:46:00,65.9,64.1,30.17,East,89,0.0,0.0,94,0.02,,---,0.04,VWS V14.00,2013-08-17 21:46:00,
2013-08-17 17:51:00,65.9,64.1,30.17,ENE,77,0.0,0.0,94,0.02,,---,0.04,VWS V14.00,2013-08-17 21:51:00,
2013-08-17 17:56:00,65.8,64.3,30.17,ENE,77,0.0,0.0,95,0.02,,---,0.05,VWS V14.00,2013-08-17 21:56:00,
2013-08-17 18:01:00,65.8,64.3,30.17,ENE,77,0.0,0.0,95,0.02,,---,0.05,VWS V14.00,2013-08-17 22:01:00,
2013-08-17 18:06:00,65.7,64.2,30.17,ENE,77,0.0,0.0,95,0.02,,---,0.05,VWS V14.00,2013-08-17 22:06:00,
2013-08-17 18:11:00,65.6,64.1,30.17,ENE,77,0.0,0.0,95,0.02,,---,0.05,VWS V14.00,2013-08-17 22:11:00,
2013-08-17 18:16:00,65.5,64.0,30.17,ENE,77,0.0,1.0,95,0.03,,---,0.06,VWS V14.00,2013-08-17 22:16:00,
2013-08-17 18:20:00,65.5,64.0,30.16,ENE,63,0.0,4.0,95,0.03,,---,0.06,VWS V14.00,2013-08-17 22:20:00,
2013-08-17 18:25:00,65.5,64.3,30.16,ENE,63,0.0,0.0,96,0.03,,---,0.06,VWS V14.00,2013-08-17 22:25:00,
2013-08-17 18:31:00,65.4,63.9,30.16,East,85,1.0,1.0,95,0.03,,---,0.06,VWS V14.00,2013-08-17 22:31:00,
2013-08-17 18:35:00,65.4,64.2,30.16,ENE,76,0.0,0.0,96,0.03,,---,0.06,VWS V14.00,2013-08-17 22:35:00,
2013-08-17 18:40:00,65.3,64.1,30.16,ENE,76,0.0,0.0,96,0.02,,---,0.06,VWS V14.00,2013-08-17 22:40:00,
2013-08-17 18:45:00,65.4,64.2,30.16,ENE,76,0.0,0.0,96,0.02,,---,0.06,VWS V14.00,2013-08-17 22:45:00,
2013-08-17 18:50:00,65.4,64.2,30.16,ENE,77,0.0,2.0,96,0.02,,---,0.06,VWS V14.00,2013-08-17 22:50:00,
2013-08-17 18:55:00,65.4,64.2,30.16,ENE,60,0.0,0.0,96,0.03,,---,0.07,VWS V14.00,2013-08-17 22:55:00,
2013-08-17 19:00:00,65.3,64.1,30.16,ENE,60,0.0,0.0,96,0.02,,---,0.07,VWS V14.00,2013-08-17 23:00:00,
2013-08-17 19:05:00,65.3,64.1,30.16,ENE,60,0.0,0.0,96,0.02,,---,0.07,VWS V14.00,2013-08-17 23:05:00,
2013-08-17 19:10:00,65.2,64.0,30.16,ENE,60,0.0,0.0,96,0.02,,---,0.07,VWS V14.00,2013-08-17 23:10:00,
2013-08-17 19:15:00,65.2,64.0,30.16,East,97,0.0,0.0,96,0.01,,---,0.07,VWS V14.00,2013-08-17 23:15:00,
2013-08-17 19:20:00,65.2,64.0,30.16,East,97,0.0,0.0,96,0.01,,---,0.07,VWS V14.00,2013-08-17 23:20:00,
2013-08-17 19:25:00,65.1,63.9,30.17,East,97,0.0,0.0,96,0.01,,---,0.07,VWS V14.00,2013-08-17 23:25:00,
2013-08-17 19:30:00,65.1,63.9,30.17,East,97,0.0,1.0,96,0.01,,---,0.07,VWS V14.00,2013-08-17 23:30:00,
2013-08-17 19:35:00,65.2,64.3,30.17,East,97,0.0,0.0,97,0.01,,---,0.07,VWS V14.00,2013-08-17 23:35:00,
2013-08-17 19:40:00,65.1,64.2,30.17,East,97,0.0,0.0,97,0.01,,---,0.07,VWS V14.00,2013-08-17 23:40:00,
2013-08-17 19:45:00,65.1,64.2,30.17,East,97,0.0,0.0,97,0.01,,---,0.07,VWS V14.00,2013-08-17 23:45:00,
2013-08-17 19:50:00,65.1,64.2,30.17,East,97,0.0,2.0,97,0.01,,---,0.07,VWS V14.00,2013-08-17 23:50:00,
2013-08-17 19:55:00,65.0,63.8,30.17,East,97,0.0,0.0,96,0.00,,---,0.07,VWS V14.00,2013-08-17 23:55:00,
2013-08-17 20:00:00,65.1,64.2,30.17,East,97,0.0,4.0,97,0.01,,---,0.08,VWS V14.00,2013-08-18 00:00:00,
2013-08-17 20:05:00,65.1,64.2,30.17,East,97,0.0,0.0,97,0.01,,---,0.08,VWS V14.00,2013-08-18 00:05:00,
2013-08-17 20:10:00,65.1,64.2,30.17,East,97,0.0,1.0,97,0.01,,---,0.08,VWS V14.00,2013-08-18 00:10:00,
2013-08-17 20:15:00,65.1,64.2,30.17,East,80,0.0,0.0,97,0.01,,---,0.08,VWS V14.00,2013-08-18 00:15:00,
2013-08-17 20:20:00,65.0,64.1,30.17,ENE,60,1.0,5.0,97,0.01,,---,0.08,VWS V14.00,2013-08-18 00:20:00,
2013-08-17 20:25:00,65.0,64.1,30.17,ENE,60,1.0,1.0,97,0.01,,---,0.08,VWS V14.00,2013-08-18 00:25:00,
2013-08-17 20:30:00,65.0,64.1,30.17,NNE,23,0.0,0.0,97,0.01,,---,0.08,VWS V14.00,2013-08-18 00:30:00,
2013-08-17 20:35:00,64.9,64.0,30.17,ENE,66,1.0,4.0,97,0.01,,---,0.08,VWS V14.00,2013-08-18 00:35:00,
2013-08-17 20:40:00,64.9,64.0,30.17,ENE,66,0.0,0.0,97,0.01,,---,0.08,VWS V14.00,2013-08-18 00:40:00,
2013-08-17 20:45:00,64.9,64.0,30.17,ENE,66,0.0,0.0,97,0.01,,---,0.08,VWS V14.00,2013-08-18 00:45:00,
2013-08-17 20:50:00,64.9,64.0,30.17,ENE,66,0.0,0.0,97,0.01,,---,0.08,VWS V14.00,2013-08-18 00:50:00,
2013-08-17 20:55:00,64.8,63.9,30.17,ENE,66,0.0,0.0,97,0.01,,---,0.08,VWS V14.00,2013-08-18 00:55:00,
2013-08-17 21:00:00,64.7,63.8,30.17,NNE,13,0.0,0.0,97,0.00,,---,0.08,VWS V14.00,2013-08-18 01:00:00,
2013-08-17 21:05:00,64.7,63.8,30.18,NE,36,0.0,3.0,97,0.00,,---,0.08,VWS V14.00,2013-08-18 01:05:00,
2013-08-17 21:10:00,64.7,63.8,30.18,NE,36,0.0,3.0,97,0.00,,---,0.08,VWS V14.00,2013-08-18 01:10:00,
2013-08-17 21:15:00,64.7,63.8,30.18,NE,36,0.0,0.0,97,0.00,,---,0.08,VWS V14.00,2013-08-18 01:15:00,
2013-08-17 21:20:00,64.7,63.8,30.18,NE,44,2.0,4.0,97,0.00,,---,0.08,VWS V14.00,2013-08-18 01:20:00,
2013-08-17 21:25:00,64.7,63.8,30.18,NE,44,0.0,1.0,97,0.00,,---,0.08,VWS V14.00,2013-08-18 01:25:00,
2013-08-17 21:30:00,64.7,63.8,30.18,NE,44,0.0,0.0,97,0.01,,---,0.09,VWS V14.00,2013-08-18 01:30:00,
2013-08-17 21:35:00,64.6,63.7,30.18,NE,49,0.0,0.0,97,0.01,,---,0.09,VWS V14.00,2013-08-18 01:35:00,
2013-08-17 21:40:00,64.6,63.7,30.19,NE,49,0.0,0.0,97,0.01,,---,0.09,VWS V14.00,2013-08-18 01:40:00,
2013-08-17 21:45:00,64.6,63.7,30.18,NE,49,0.0,0.0,97,0.01,,---,0.09,VWS V14.00,2013-08-18 01:45:00,
2013-08-17 21:50:00,64.6,63.7,30.19,NE,49,0.0,0.0,97,0.01,,---,0.09,VWS V14.00,2013-08-18 01:50:00,
2013-08-17 21:55:00,64.6,63.7,30.19,NE,49,0.0,0.0,97,0.01,,---,0.09,VWS V14.00,2013-08-18 01:55:00,
2013-08-17 22:00:00,64.6,63.7,30.19,NE,49,0.0,0.0,97,0.01,,---,0.09,VWS V14.00,2013-08-18 02:00:00,
2013-08-17 22:05:00,64.6,63.7,30.19,NE,49,0.0,0.0,97,0.01,,---,0.09,VWS V14.00,2013-08-18 02:05:00,
2013-08-17 22:10:00,64.6,63.7,30.19,NE,49,0.0,0.0,97,0.01,,---,0.09,VWS V14.00,2013-08-18 02:10:00,
2013-08-17 22:15:00,64.6,63.7,30.19,NE,49,0.0,0.0,97,0.01,,---,0.09,VWS V14.00,2013-08-18 02:15:00,
2013-08-17 22:20:00,64.6,63.7,30.20,NE,49,0.0,0.0,97,0.01,,---,0.09,VWS V14.00,2013-08-18 02:20:00,
2013-08-17 22:25:00,64.7,63.8,30.20,NE,49,0.0,0.0,97,0.01,,---,0.09,VWS V14.00,2013-08-18 02:25:00,
2013-08-17 22:30:00,64.6,63.7,30.20,NE,49,0.0,0.0,97,0.00,,---,0.09,VWS V14.00,2013-08-18 02:30:00,
2013-08-17 22:35:00,64.6,63.7,30.20,NE,49,0.0,0.0,97,0.00,,---,0.09,VWS V14.00,2013-08-18 02:35:00,
2013-08-17 22:40:00,64.6,63.7,30.20,NE,49,0.0,0.0,97,0.00,,---,0.09,VWS V14.00,2013-08-18 02:40:00,
2013-08-17 22:45:00,64.6,63.7,30.21,NE,49,0.0,1.0,97,0.00,,---,0.09,VWS V14.00,2013-08-18 02:45:00,
2013-08-17 22:50:00,64.6,63.7,30.21,NE,49,0.0,0.0,97,0.00,,---,0.09,VWS V14.00,2013-08-18 02:50:00,
2013-08-17 22:55:00,64.6,63.7,30.21,NE,49,0.0,0.0,97,0.00,,---,0.09,VWS V14.00,2013-08-18 02:55:00,
2013-08-17 23:00:00,64.6,63.7,30.21,NE,49,0.0,0.0,97,0.00,,---,0.09,VWS V14.00,2013-08-18 03:00:00,
2013-08-17 23:05:00,64.6,63.7,30.21,NE,49,0.0,0.0,97,0.01,,---,0.10,VWS V14.00,2013-08-18 03:05:00,
2013-08-17 23:10:00,64.6,63.7,30.21,NE,49,0.0,0.0,97,0.01,,---,0.10,VWS V14.00,2013-08-18 03:10:00,
2013-08-17 23:15:00,64.6,63.7,30.21,NE,49,0.0,0.0,97,0.01,,---,0.10,VWS V14.00,2013-08-18 03:15:00,
2013-08-17 23:20:00,64.6,63.7,30.21,NE,49,0.0,0.0,97,0.01,,---,0.10,VWS V14.00,2013-08-18 03:20:00,
2013-08-17 23:25:00,64.6,63.7,30.21,NE,49,0.0,0.0,97,0.01,,---,0.10,VWS V14.00,2013-08-18 03:25:00,
2013-08-17 23:30:00,64.6,64.0,30.21,NE,49,0.0,0.0,98,0.01,,---,0.10,VWS V14.00,2013-08-18 03:30:00,
2013-08-17 23:35:00,64.7,64.1,30.21,NE,49,0.0,0.0,98,0.02,,---,0.11,VWS V14.00,2013-08-18 03:35:00,
2013-08-17 23:40:00,64.7,64.1,30.21,NE,49,0.0,0.0,98,0.02,,---,0.11,VWS V14.00,2013-08-18 03:40:00,
2013-08-17 23:45:00,64.7,64.1,30.20,NE,49,0.0,0.0,98,0.02,,---,0.11,VWS V14.00,2013-08-18 03:45:00,
2013-08-17 23:50:00,64.7,64.1,30.20,NE,49,0.0,0.0,98,0.02,,---,0.11,VWS V14.00,2013-08-18 03:50:00,
2013-08-17 23:55:00,64.7,64.1,30.20,NE,49,0.0,0.0,98,0.03,,---,0.12,VWS V14.00,2013-08-18 03:55:00,